Miscellaneous Local Product
Issued by NWS North Platte, NE

Home | Current Version | Previous Version | Text Only | Print | Product List | Glossary On
Versions: 1 2 3 4 5 6 7 8 9 10 11 12 13 14 15 16 17 18 19 20 21 22 23 24 25 26 27 28 29 30 31 32 33 34 35 36 37 38 39 40 41 42 43 44 45 46 47 48 49 50
000
AXUS43 KLBF 271410
MISLBF


WESTERN AND NORTH CENTRAL NEBRASKA HOURLY WEATHER ROUNDUP
NATIONAL WEATHER SERVICE NORTH PLATTE NE
900 AM CDT THU AUG 27 2015

NOTE: "FAIR" INDICATES FEW OR NO CLOUDS BELOW 12,000 FEET WITH NO
SIGNIFICANT WEATHER AND/OR OBSTRUCTIONS TO VISIBILITY.

NOTE: STATIONS NOT REPORTING VARIABLES SUCH AS SKY/WEATHER OR
PRESSURE ARE PROVIDED BY THE NEBRASKA DEPARTMENT OF
ROADS...RAWS...AND APRS NETWORKS...AND ARE NOT UNDER
NATIONAL WEATHER SERVICE QUALITY CONTROL.

...OBSERVATIONS IN AND NEAR THE EASTERN PANHANDLE OF NEBRASKA...

CITY           SKY/WX    TMP DP  RH WIND       PRES   REMARKS
PINE RIDGE     CLOUDY    66  56  70 NW12      30.02R
CHADRON        CLOUDY    68  58  70 CALM      30.04R
ALLIANCE       CLOUDY    68  63  84 NW12      30.00R
SIDNEY         PTSUNNY   69  64  84 W15       30.04R
CRESCENT LAKE    N/A     67  58  73 CALM        N/A
BIG SPRINGS      N/A     64  55  72 W3          N/A
$$

...OBSERVATIONS IN NORTH CENTRAL NEBRASKA...

CITY           SKY/WX    TMP DP  RH WIND       PRES   REMARKS
VALENTINE      CLOUDY    67  64  90 E13       29.95R
THEDFORD       CLOUDY    68  67  94 SE14      29.95F FOG
AINSWORTH      CLOUDY    67  66  97 SE10      29.95S FOG
O`NEILL        CLOUDY    69  67  94 SE9       29.95F
ORD            CLOUDY    68  65  90 SE10      29.95F
BROKEN BOW     FOG       69  67  93 E9        29.96F VSB 1
SPRINGVIEW       N/A     68  65  89 E9G16       N/A
SARGENT          N/A     67  66  96 E3          N/A
CHAMBERS         N/A     69  66  91 SE12        N/A
EWING            N/A     68  65  89 E3          N/A
$$

...OBSERVATIONS IN SOUTHWEST NEBRASKA AND FAR NORTHEAST COLORADO...

CITY           SKY/WX    TMP DP  RH WIND       PRES   REMARKS
WRAY           FAIR      65  51  60 W10       29.97S
HOLYOKE        FAIR      66  50  55 NW8       29.98R
IMPERIAL       CLOUDY    67  54  63 CALM      29.94F
OGALLALA       CLOUDY    62  55  77 CALM      29.94F
NORTH PLATTE   PTSUNNY   67  62  84 E6        29.94F
MCCOOK         CLOUDY    73  58  59 CALM      29.92F
LEXINGTON      MOSUNNY   69  67  93 E8        29.95R
PAXTON           N/A     62  57  85 CALM        N/A
BRADY            N/A     68  63  84 CALM        N/A
CALLAWAY         N/A     69  68  98 E12         N/A
$$

...OBSERVATIONS IN CENTRAL LINCOLN COUNTY AREA...

CITY           SKY/WX    TMP DP  RH WIND       PRES   REMARKS
N.P. AIRPORT   PTSUNNY   67  62  84 E6        29.94F
N.P. DOWNTOWN    N/A     69  62  79 CALM        N/A
N.P. SOUTHEAST   N/A     68  62  80 CALM        N/A
$$

...SOME OBSERVATIONS FROM AROUND THE REGION...

CITY           SKY/WX    TMP DP  RH WIND       PRES   REMARKS
DENVER         PTSUNNY   69  47  45 S5        30.16R
LARAMIE        CLOUDY    56  52  86 NW5       30.31S
CHEYENNE       MOSUNNY   66  51  58 NW15G26   30.20R
SCOTTSBLUFF    CLOUDY    68  63  84 NW10      30.05R
RAPID CITY     CLOUDY    64  61  90 N5        30.03F
PIERRE         CLOUDY    68  65  90 W7        29.96R
WINNER         FAIR      72  67  84 SE16      29.93F
SIOUX FALLS    CLOUDY    67  63  87 E5        29.91F
OMAHA          CLOUDY    66  58  75 SE20      30.00F
GRAND ISLAND   CLOUDY    69  66  90 E9        29.98F
KANSAS CITY    CLOUDY    67  57  70 S12       30.09S
WICHITA        PTSUNNY   76  67  73 S10       30.02S
HAYS           MOSUNNY   79  57  47 SW16      29.95F
LIBERAL        PTSUNNY   75  59  57 SW13      30.07F
GOODLAND       CLOUDY    74  51  44 SW13      29.98S
$$



USA.gov is the U.S. government's official web portal to all federal, state and local government web resources and services.